Location: Austin
(30.3000°N, 97.7500°W)
Time: 11:24:44
(UTC-05:00)

CZ-3 Stage 3 - Pass Details

Date: 03 April 2024
Orbit: 434 x 34999 km, 30.4° (Epoch: 21 April)

Event Time Altitude Azimuth Distance (km) Brightness Sun altitude
Rises 04:20:26 0° 259° (W) 19,555 10.2 -36.4°
Enters shadow 04:35:59 - 261° (W) 15,678 9.7 -33.6°
Exits shadow 05:11:28 37° 266° (W) 3,241 6.1 -26.9°
Maximum altitude 05:16:42 90° 345° (NNW) 1,294 4.5 -25.8°
Drops below altitude 10° 05:20:55 10° 87° (E) 2,157 6.7 -25.0°
Sets 05:22:16 0° 87° (E) 2,780 7.6 -24.7°
